Regional Weather Roundup
Issued by NWS Newport/Morehead, NC

Current Version | Previous Version | Graphics & Text | Print | Product List | Glossary Off
Versions: 1 2 3 4 5 6 7 8 9 10 11 12 13 14 15 16 17 18 19 20 21 22 23 24 25 26 27 28 29 30 31 32 33 34 35 36 37 38 39 40 41 42 43 44 45 46 47 48 49 50
426 ASUS42 KMHX 302325 RWRMHX WEATHER ROUNDUP FOR EASTERN NORTH CAROLINA NATIONAL WEATHER SERVICE NEWPORT/MOREHEAD CITY NC 700 PM EDT SAT APR 30 2016 NOTE: "FAIR" INDICATES FEW OR NO CLOUDS BELOW 12,000 FEET WITH NO SIGNIFICANT WEATHER AND/OR OBSTRUCTIONS TO VISIBILITY NCZ015>017-031-032-045>047-102-103-010000- NORTH COAST CITY SKY/WX TMP DP RH WIND PRES REMARKS EDENTON PTCLDY 61 53 75 E6 30.18R ELIZABETH CITY PTCLDY 57 51 80 NE14 30.18S KITTY HAWK MOCLDY 54 51 89 NE7G17 30.16F MANTEO NOT AVBL $$ NCZ045>047-081-094-103-104-010000- CENTRAL COAST CITY SKY/WX TMP DP RH WIND PRES REMARKS FRISCO CLOUDY 56 53 90 NE9G16 30.15R SWANQUARTER NOT AVBL $$ NCZ095-097-098-100-101-010000- SOUTHERN COAST CITY SKY/WX TMP DP RH WIND PRES REMARKS BEAUFORT CLOUDY 63 56 78 NE9 30.14R CEDAR ISLAND NOT AVBL JACKSONVILLE CLOUDY 66 56 70 E12 30.13R PINEY ISLAND NOT AVBL WILMINGTON CLOUDY 65 59 81 E9 30.12R $$ NCZ011>013-027>030-043-044-078>080-089-090>093-098-010000- COASTAL PLAIN CITY SKY/WX TMP DP RH WIND PRES REMARKS AHOSKIE CLOUDY 59 53 80 NE3 30.17S CLINTON CLOUDY 67 60 79 E5 30.11R ELIZABETHTOWN CLOUDY 70 62 75 E5 30.10R GOLDSBORO CLOUDY 64 63 94 E9 30.11S GREENVILLE CLOUDY 63 55 77 E6 30.16S HAVELOCK CLOUDY 64 58 80 E7 30.15S KENANSVILLE PTSUNNY 64 57 78 CALM 30.13S KINSTON PTSUNNY 64 57 77 E7 30.14S NEW BERN CLOUDY 64 55 72 E7 30.14F RICHLANDS CLOUDY 65 58 78 E10 30.13R ROCKY MOUNT CLOUDY 61 56 83 E6 30.14S WASHINGTON CLOUDY 63 55 75 E5 30.15R WHITEVILLE PTSUNNY 70 62 75 E6 30.09R $$ AMZ130-135-150-152-154-156-158-170-250-252-270-ANZ085-086-088-633-658-670-010000- MARINE OBSERVATIONS STATION/POSITION TIME TEMP WIND PRES WAVE SWELL AIR SEA DIR/SP/G HT/PER HT/PER (UTC) (F) (DEG/KT/KT) (MB) (FT/S) (FT/S) CHESAPEAKE LIGHT 2300 52 50/ 15/ 16 1023.2 64 E VA BEACH 2250 53 53 20/ 14/ 16 1021.7 6/ 9 5/ 9 DUCK 2200 53 67 1021.7 2 E DUCK 2211 59 N/A 5/10 2/11 OREGON INLET 2200 55 62 1021.4 13E OREGON INLT 2300 55 N/A 5/ 9 5/ 9 HATTERAS CG 2200 59 69 1020.5 DIAMOND BUOY 2250 59 73 40/ 16/ 21 1020.4 5/10 3/10 CAPE LOOKOUT 2300 62 50/ 16/ 17 1020.4 BEAUFORT LAB 2200 65 67 1019.5 30 SE NEW RVR IN 2225 68 N/A 4/ 5 2/11 27 SE WRIGHTSVLE 2308 66 70 70/ 17/ 23 1019.1 5 SE WRIGHTSVLE 2308 65 68 90/ 17/ 21 1020.2 225 S CAPE HAT 2250 71 60/ 12/ 14 1018.6 5/10 3/10 41 SE CHARLESTON 2250 75 74 90/ 12/ 14 1016.4 3/ 4 2/10 $$

USA.gov is the U.S. government's official web portal to all federal, state and local government web resources and services.